{"data":{"norad_id":37933,"intl_designator":"2011-069A","name":"ASIASAT 7","alt_names":[],"object_type":"PAYLOAD","status":"ACTIVE","operator":null,"country":"AC","launch_date":"2011-11-25","launch_site_code":"TYMSC","launch_vehicle":null,"mission":null,"orbit_class":"UNKNOWN","rcs_meters":45.0715,"size_class":null,"mass_kg":null,"dimensions":null,"purposes":["comms"],"wikipedia_slug":null,"has_3d_model":false,"image_url":null,"decayed_at":null,"tle_current":{"epoch":"2026-05-25T00:49:21.410112Z","epoch_age_seconds":69262,"freshness":"FRESH","line1":"1 37933U 11069A   26145.03427558 -.00000336  00000+0  00000+0 0  9995","line2":"2 37933   0.0315 269.5791 0001519 141.8444 309.0515  1.00270061 44623","mean_motion":1.00270061,"eccentricity":0.0001519,"inclination_deg":0.0315,"raan_deg":269.5791,"arg_perigee_deg":141.8444,"mean_anomaly_deg":309.0515,"bstar":0,"rev_number":4462,"period_min":1436.1215956576,"perigee_km":35780.673371699,"apogee_km":35793.483164098,"semimajor_km":42165.215267898,"source":"CELESTRAK","updated_at":"2026-05-25T13:38:13.906377Z"}}}